User: anonymous   Login
Location: C�an Torras
(41.5052°N, 1.9280°E)
Time: 21:02:42
(UTC+00:00)
Language:

Envisat - Orbit

View from above orbital plane
View from above orbital plane
View from above satellite
View from above satellite

Ground track
Ground track

The orbit data is extracted from the following two-line orbital elements,

1 27386U 02009A   21110.56597935  .00000044  00000-0  27910-4 0  9992
2 27386  98.1481 107.5832 0001371  86.8036  23.4315 14.38021714  2751
Epoch (UTC): 20 April 2021 13:35:00
Eccentricity: 0.0001371
inclination: 98.1481°
perigee height: 764 km
apogee height: 766 km
right ascension of ascending node: 107.5832°
argument of perigee: 86.8036°
revolutions per day: 14.38021714
mean anomaly at epoch: 23.4315°
orbit number at epoch: 275

The dashed part of the orbit path shows where the satellite is in the earth's shadow,  

DLR